Weather History for Nogales, AZ

Change the Weather History Date:

Tuesday, October 9, 2012

  Actual Average (KTUS) Record (KTUS)
Temperature  
Mean Temperature 67 °F 74 °F  
Max Temperature 84 °F 87 °F 100 °F (1996)
Min Temperature 50 °F 60 °F 42 °F (1939)
Degree Days  
Heating Degree Days 0 0  
Month to date heating degree days 0  
Since 1 July heating degree days 0  
Cooling Degree Days 2 9  
Month to date cooling degree days 92  
Year to date cooling degree days 2999  
Growing Degree Days 17 (Base 50)    
Moisture  
Dew Point 33 °F    
Average Humidity 30    
Maximum Humidity 54    
Minimum Humidity 12    
Precipitation  
Precipitation 0.00 in 0.04 in 0.55 in (1933)
Month to date precipitation 0.32  
Year to date precipitation 9.52  
Snow  
Snow 0.00 in 0.00 in 0.00 in (2002)
Month to date snowfall 0.0  
Since 1 July snowfall 0.0  
Snow Depth -    
Sea Level Pressure  
Sea Level Pressure 29.92 in    
Wind  
Wind Speed 4 mph (SSE)    
Max Wind Speed 12 mph    
Max Gust Speed 21 mph    
Visibility 10 miles    
Events      
T = Trace of Precipitation, MM = Missing Value Source: NWS Daily Summary

Daily Weather History Graph

Daily Weather History Graph

Search for Another Location

Airport:

Trip Planner

Search our weather history database for the weather conditions in past years. The results will help you decide how hot, cold, wet, or windy it might be!

Date:

Astronomy

Oct. 09, 2012 Rise Set
Actual Time 6:22 AM MST 5:57 PM MST
Civil Twilight 5:58 AM MST 6:22 PM MST
Nautical Twilight 5:30 AM MST 6:50 PM MST
Astronomical Twilight 5:02 AM MST 7:18 PM MST
Moon 12:24 AM MST (10/9) 2:07 PM MST (10/9)
Length of Visible Light 12h 23m
Length of Day
11h 35m
Waning Crescent, 35% of the Moon is Illuminated
Oct 9
Waning Crescent
Oct 15
New
Oct 21
First Quarter
Oct 29
Full
Nov 6
Last Quarter

Hourly Weather History & Observations

Time (MST) Temp. Dew Point Humidity Pressure Visibility Wind Dir Wind Speed Gust Speed Precip Events Conditions
12:54 AM 61.0 °F 32.0 °F 34% 29.91 in 10.0 mi East 5.8 mph - N/A   Clear
1:54 AM 62.6 °F 32.0 °F 32% 30.09 in 10.0 mi Calm Calm - N/A   Clear
2:54 AM 55.9 °F 34.0 °F 44% 29.90 in 10.0 mi NE 4.6 mph - N/A   Clear
3:54 AM 54.0 °F 34.0 °F 47% 29.90 in 10.0 mi NE 4.6 mph - N/A   Clear
4:54 AM 51.8 °F 33.8 °F 50% 30.07 in 10.0 mi Calm Calm - N/A   Clear
5:54 AM 50.0 °F 34.0 °F 54% 29.93 in 10.0 mi Calm Calm - N/A   Clear
6:54 AM 51.1 °F 34.0 °F 52% 29.96 in 10.0 mi Calm Calm - N/A   Clear
7:54 AM 59.0 °F 36.0 °F 42% 29.97 in 10.0 mi Calm Calm - N/A   Clear
8:54 AM 68.0 °F 37.0 °F 32% 29.95 in 10.0 mi Calm Calm - N/A   Clear
9:54 AM 77.0 °F 36.0 °F 23% 29.94 in 10.0 mi Variable 3.5 mph - N/A   Clear
10:54 AM 82.0 °F 33.1 °F 17% 29.91 in 10.0 mi SE 11.5 mph - N/A   Clear
11:54 AM 82.0 °F 30.0 °F 15% 29.88 in 10.0 mi Calm Calm - N/A   Clear
12:54 PM 84.0 °F 33.1 °F 16% 29.86 in 10.0 mi Variable 6.9 mph - N/A   Clear
1:54 PM 84.9 °F 30.0 °F 14% 29.83 in 10.0 mi South 9.2 mph 20.7 mph N/A   Clear
2:54 PM 84.9 °F 27.0 °F 12% 29.84 in 10.0 mi WSW 10.4 mph 18.4 mph N/A   Clear
3:54 PM 84.0 °F 27.0 °F 13% 29.84 in 10.0 mi West 8.1 mph - N/A   Clear
4:54 PM 82.9 °F 35.1 °F 18% 29.84 in 10.0 mi SSW 11.5 mph - N/A   Clear
5:54 PM 77.0 °F 37.9 °F 24% 29.87 in 10.0 mi SSW 9.2 mph - N/A   Clear
6:54 PM 72.0 °F 37.0 °F 28% 29.91 in 10.0 mi SE 4.6 mph - N/A   Clear
7:54 PM 71.1 °F 33.1 °F 25% 29.92 in 10.0 mi SE 6.9 mph - N/A   Clear
8:54 PM 69.1 °F 33.1 °F 26% 29.92 in 10.0 mi SSE 5.8 mph - N/A   Clear
9:54 PM 70.0 °F 33.1 °F 26% 29.91 in 10.0 mi SSE 9.2 mph - N/A   Clear
10:54 PM 69.1 °F 36.0 °F 30% 29.90 in 10.0 mi SSE 9.2 mph - N/A   Clear
11:54 PM 62.1 °F 34.0 °F 35% 29.93 in 10.0 mi Calm Calm - N/A   Clear